WZZ8080 LRBV-LHBP

Flight info

Callsign WZZ8080
Flight time 1h 2m
Altitude 36000
Route EBCOL DCT COZMU DCT TOMET DCT BUDOP DCT KEZAL
Aircraft A320/M-SDE1E2E3FGIJ1J4RWXY/LB1

Departure

Time 2026-05-04 08:57
Airport Brașov-Ghimbav International Airport (LRBV)

Arrival

Time 2026-05-04 10:00
Airport Budapest Liszt Ferenc International Airport (LHBP)
Time Latitude Longitude Altitude Speed Heading
2026-05-04 08:24 45.69502 25.51685 1766 ft 0 kts 121°
2026-05-04 08:46 45.69512 25.51660 1778 ft 4 kts 122°
2026-05-04 08:46 45.69524 25.51637 1775 ft 4 kts 188°
2026-05-04 08:46 45.69527 25.51637 1776 ft 0 kts 219°
2026-05-04 08:50 45.69498 25.51575 1785 ft 8 kts 261°
2026-05-04 08:50 45.69511 25.51488 1783 ft 10 kts 293°
2026-05-04 08:51 45.69555 25.51397 1779 ft 12 kts 314°
2026-05-04 08:51 45.69628 25.51335 1780 ft 14 kts
2026-05-04 08:51 45.69718 25.51419 1778 ft 18 kts 39°
2026-05-04 08:51 45.69834 25.51540 1775 ft 23 kts 32°
2026-05-04 08:52 45.69975 25.51676 1765 ft 26 kts 36°
2026-05-04 08:52 45.70130 25.51837 1762 ft 29 kts 37°
2026-05-04 08:52 45.70295 25.52019 1762 ft 30 kts 38°
2026-05-04 08:52 45.70464 25.52198 1744 ft 29 kts 36°
2026-05-04 08:53 45.70632 25.52368 1735 ft 30 kts 36°
2026-05-04 08:54 45.71623 25.53372 1721 ft 11 kts 137°
2026-05-04 08:55 45.71564 25.53354 1721 ft 0 kts 222°
2026-05-04 08:55 45.71538 25.53322 1722 ft 24 kts 219°
2026-05-04 08:55 45.71200 25.52961 1726 ft 94 kts 217°
2026-05-04 08:57 45.64153 25.45566 4784 ft 229 kts 219°
2026-05-04 09:01 45.70170 25.42017 15456 ft 230 kts 45°
2026-05-04 09:01 45.71338 25.43631 16169 ft 233 kts 45°
2026-05-04 09:01 45.72511 25.45252 16901 ft 236 kts 46°
2026-05-04 09:01 45.73697 25.46893 17613 ft 239 kts 46°
2026-05-04 09:02 45.74900 25.48558 18287 ft 242 kts 46°
2026-05-04 09:02 45.76120 25.50249 18893 ft 246 kts 46°
2026-05-04 09:02 45.77361 25.51970 19458 ft 251 kts 46°
2026-05-04 09:02 45.78625 25.53725 20014 ft 256 kts 45°
2026-05-04 09:03 45.79914 25.55515 20554 ft 261 kts 45°
2026-05-04 09:03 45.81228 25.57338 21094 ft 265 kts 45°
2026-05-04 09:03 45.82567 25.59195 21614 ft 270 kts 45°
2026-05-04 09:03 45.83929 25.61089 22139 ft 275 kts 45°
2026-05-04 09:04 45.85316 25.63021 22662 ft 280 kts 45°
2026-05-04 09:04 45.86723 25.64985 23160 ft 285 kts 45°
2026-05-04 09:04 45.88157 25.66982 23597 ft 291 kts 44°
2026-05-04 09:04 45.89622 25.69024 24038 ft 296 kts 45°
2026-05-04 09:05 45.91109 25.71099 24448 ft 300 kts 45°
2026-05-04 09:05 45.92611 25.73201 24890 ft 303 kts 46°
2026-05-04 09:05 45.94125 25.75325 25327 ft 306 kts 46°
2026-05-04 09:05 45.95655 25.77472 25749 ft 309 kts 45°
2026-05-04 09:06 45.97399 25.79303 26148 ft 315 kts 28°
2026-05-04 09:07 46.13873 25.75103 27344 ft 395 kts 343°
2026-05-04 09:08 46.16530 25.73899 27484 ft 406 kts 343°
2026-05-04 09:08 46.19256 25.72667 27613 ft 416 kts 343°
2026-05-04 09:08 46.22048 25.71406 27794 ft 424 kts 344°
2026-05-04 09:08 46.24886 25.70118 28099 ft 429 kts 343°
2026-05-04 09:09 46.27743 25.68815 28485 ft 432 kts 343°
2026-05-04 09:09 46.30622 25.67500 28869 ft 435 kts 343°
2026-05-04 09:09 46.33513 25.66178 29256 ft 438 kts 343°
2026-05-04 09:09 46.36416 25.64847 29791 ft 437 kts 344°
2026-05-04 09:10 46.39319 25.63515 30280 ft 437 kts 344°
2026-05-04 09:10 46.42140 25.61826 30636 ft 442 kts 333°
2026-05-04 09:10 46.44672 25.59271 30984 ft 447 kts 320°
2026-05-04 09:10 46.46791 25.55943 31325 ft 453 kts 308°
2026-05-04 09:11 46.48393 25.51990 31653 ft 458 kts 295°
2026-05-04 09:11 46.49371 25.47583 32049 ft 461 kts 282°
2026-05-04 09:11 46.49762 25.42964 32516 ft 461 kts 277°
2026-05-04 09:11 46.50068 25.38332 32992 ft 461 kts 277°
2026-05-04 09:12 46.50367 25.33696 33384 ft 462 kts 277°
2026-05-04 09:12 46.50663 25.29041 33793 ft 464 kts 277°
2026-05-04 09:14 46.52700 24.96626 36123 ft 455 kts 277°
2026-05-04 09:14 46.53255 24.87532 36125 ft 451 kts 277°
2026-05-04 09:15 46.53797 24.78480 36128 ft 450 kts 277°
2026-05-04 09:15 46.54338 24.69436 36131 ft 449 kts 277°
2026-05-04 09:17 46.56681 24.28668 36150 ft 450 kts 277°
2026-05-04 09:18 46.57176 24.19588 36161 ft 451 kts 277°
2026-05-04 09:18 46.57666 24.10574 36157 ft 450 kts 277°
2026-05-04 09:19 46.58151 24.01501 36171 ft 450 kts 277°
2026-05-04 09:19 46.58629 23.92421 36179 ft 450 kts 277°
2026-05-04 09:20 46.59100 23.83347 36179 ft 450 kts 277°
2026-05-04 09:20 46.59567 23.74274 36176 ft 450 kts 277°
2026-05-04 09:21 46.60027 23.65204 36163 ft 450 kts 277°
2026-05-04 09:21 46.60473 23.56145 36174 ft 449 kts 277°
2026-05-04 09:22 46.60918 23.47096 36170 ft 448 kts 277°
2026-05-04 09:22 46.61359 23.38056 36164 ft 448 kts 277°
2026-05-04 09:23 46.61778 23.29003 36163 ft 448 kts 277°
2026-05-04 09:23 46.62191 23.19967 36166 ft 447 kts 277°
2026-05-04 09:25 46.63793 22.83982 36165 ft 445 kts 277°
2026-05-04 09:26 46.64177 22.75018 36181 ft 443 kts 277°
2026-05-04 09:26 46.64547 22.66079 36193 ft 442 kts 276°
2026-05-04 09:27 46.64903 22.57153 36180 ft 441 kts 276°
2026-05-04 09:27 46.65264 22.48232 36182 ft 441 kts 276°
2026-05-04 09:28 46.65618 22.39315 36167 ft 441 kts 276°
2026-05-04 09:28 46.65962 22.30411 36178 ft 440 kts 276°
2026-05-04 09:29 46.66298 22.21517 36185 ft 440 kts 276°
2026-05-04 09:29 46.66622 22.12630 36186 ft 439 kts 276°
2026-05-04 09:30 46.66939 22.03803 36188 ft 439 kts 276°
2026-05-04 09:30 46.67254 21.94929 36183 ft 439 kts 276°
2026-05-04 09:31 46.67564 21.86059 36199 ft 438 kts 276°
2026-05-04 09:31 46.67865 21.77205 36202 ft 438 kts 276°
2026-05-04 09:32 46.68160 21.68358 36201 ft 437 kts 276°
2026-05-04 09:34 46.72769 21.39044 36199 ft 424 kts 301°
2026-05-04 09:34 46.74183 21.35271 36199 ft 424 kts 301°
2026-05-04 09:34 46.77000 21.27718 36198 ft 424 kts 301°
2026-05-04 09:35 46.79819 21.20159 36183 ft 424 kts 301°
2026-05-04 09:35 46.81226 21.16388 35982 ft 424 kts 301°
2026-05-04 09:35 46.82632 21.12616 35510 ft 422 kts 301°
2026-05-04 09:37 46.92166 20.86858 32250 ft 400 kts 301°
2026-05-04 09:37 46.93476 20.83289 31816 ft 396 kts 301°
2026-05-04 09:38 46.94775 20.79749 31371 ft 394 kts 301°
2026-05-04 09:38 46.96065 20.76231 30933 ft 391 kts 301°
2026-05-04 09:38 46.97348 20.72733 30508 ft 388 kts 301°
2026-05-04 09:38 46.98622 20.69260 30064 ft 386 kts 301°
2026-05-04 09:39 46.99886 20.65815 29638 ft 382 kts 301°
2026-05-04 09:39 47.01138 20.62399 29235 ft 379 kts 301°
2026-05-04 09:39 47.02376 20.59012 28831 ft 375 kts 301°
2026-05-04 09:39 47.03601 20.55652 28441 ft 372 kts 301°
2026-05-04 09:40 47.04817 20.52315 28060 ft 369 kts 301°
2026-05-04 09:40 47.06017 20.49012 27680 ft 366 kts 301°
2026-05-04 09:40 47.07206 20.45736 27299 ft 362 kts 301°
2026-05-04 09:40 47.08383 20.42489 26920 ft 359 kts 301°
2026-05-04 09:41 47.09550 20.39265 26544 ft 356 kts 301°
2026-05-04 09:42 47.18438 20.18314 23770 ft 341 kts 315°
2026-05-04 09:43 47.20057 20.15780 23329 ft 339 kts 315°
2026-05-04 09:43 47.21665 20.13255 22921 ft 337 kts 315°
2026-05-04 09:43 47.22744 20.11557 22646 ft 335 kts 315°
2026-05-04 09:43 47.24331 20.09057 22245 ft 333 kts 315°
2026-05-04 09:44 47.25908 20.06568 21843 ft 332 kts 315°
2026-05-04 09:44 47.27477 20.04087 21435 ft 330 kts 315°
2026-05-04 09:44 47.29042 20.01616 21036 ft 329 kts 315°
2026-05-04 09:46 47.38682 19.83202 18087 ft 335 kts 279°
2026-05-04 09:46 47.38735 19.79770 17640 ft 336 kts 263°
2026-05-04 09:46 47.38208 19.76420 17206 ft 335 kts 254°
2026-05-04 09:47 47.37563 19.73116 16776 ft 335 kts 254°
2026-05-04 09:47 47.36921 19.69818 16357 ft 334 kts 254°
2026-05-04 09:49 47.41459 19.48937 13390 ft 329 kts 312°
2026-05-04 09:49 47.43002 19.46454 12985 ft 328 kts 312°
2026-05-04 09:49 47.44539 19.43980 12583 ft 327 kts 312°
2026-05-04 09:51 47.53629 19.29308 10460 ft 313 kts 312°
2026-05-04 09:51 47.55098 19.26936 10102 ft 312 kts 312°
2026-05-04 09:51 47.56559 19.24568 9734 ft 310 kts 312°
2026-05-04 09:51 47.57997 19.22232 9363 ft 302 kts 311°
2026-05-04 09:52 47.59408 19.19939 8690 ft 300 kts 311°
2026-05-04 09:52 47.60800 19.17676 8122 ft 294 kts 310°
2026-05-04 09:52 47.62159 19.15468 7643 ft 286 kts 310°
2026-05-04 09:52 47.63472 19.13333 7297 ft 277 kts 309°
2026-05-04 09:53 47.64759 19.11231 7091 ft 271 kts 310°
2026-05-04 09:53 47.65832 19.09035 6870 ft 256 kts 289°
2026-05-04 09:53 47.66096 19.06519 6726 ft 246 kts 261°
2026-05-04 09:53 47.65577 19.04153 6452 ft 242 kts 236°
2026-05-04 09:54 47.64439 19.02334 6088 ft 242 kts 221°
2026-05-04 09:54 47.63180 19.00659 5689 ft 245 kts 221°
2026-05-04 09:54 47.61895 18.98978 5318 ft 248 kts 216°
2026-05-04 09:54 47.60301 18.98067 4930 ft 251 kts 182°
2026-05-04 09:55 47.58629 18.98791 4560 ft 258 kts 149°
2026-05-04 09:55 47.57288 19.00579 4204 ft 263 kts 134°
2026-05-04 09:55 47.56140 19.02670 3820 ft 259 kts 131°
2026-05-04 09:55 47.55071 19.04759 3461 ft 250 kts 131°
2026-05-04 09:56 47.54029 19.06747 3136 ft 239 kts 132°
2026-05-04 09:56 47.52998 19.08622 2816 ft 232 kts 134°
2026-05-04 09:56 47.51980 19.10398 2530 ft 221 kts 134°
2026-05-04 09:56 47.51002 19.12052 2226 ft 203 kts 135°
2026-05-04 09:57 47.50116 19.13528 2009 ft 180 kts 136°
2026-05-04 09:57 47.49342 19.14803 1798 ft 152 kts 135°
2026-05-04 09:57 47.48669 19.15906 1582 ft 137 kts 137°
2026-05-04 09:57 47.48048 19.16921 1400 ft 131 kts 136°
2026-05-04 09:58 47.47438 19.17920 1223 ft 130 kts 135°
2026-05-04 09:58 47.46825 19.18922 1034 ft 131 kts 138°
2026-05-04 09:58 47.46218 19.19915 887 ft 132 kts 135°
2026-05-04 10:00 47.43697 19.24099 485 ft 21 kts 105°
2026-05-04 10:00 47.43664 19.24298 486 ft 21 kts 103°
2026-05-04 10:02 47.43345 19.25391 482 ft 22 kts 45°
2026-05-04 10:04 47.43387 19.25794 472 ft 0 kts 225°